BULGARIASAT-1 (42801 NORAD) Tracking and Keplerian Element Data

This shows tracking and keplerian element data for the satellite.

Feedback or suggestion? Click here.




ElementValue
Catalog42801
NameBULGARIASAT-1
Epoch Orbit383
Epoch Day198.17542543
Epoch Year2018
RAAN322.8528
Inclination0.0096
Eccentricity0.0002727
Argument of Perigee152.8855
Mean Anonmoly244.2718
Mean Motion1.00273018
Decay Rate-9E-08
L11 42801U 17038A 18198.17542543 -.00000009 00000-0 00000-0 0 9992
L22 42801 0.0096 322.8528 0002727 152.8855 244.2718 1.00273018 3838

Live tracking and technical data element details for BULGARIASAT-1 (NORAD 42801). BULGARIASAT-1 can be tracked NOW for your location showing map with azimuth and elevation plus other details from your city location.

Track the satellite on the map from your city or location and see movement details for azimuth, elevation, latitude, longitude, range, height, and movement on the map or in text.







IsCatalogInMostPopularTable: catalog: 42801, numindb: 79
Update: records affected: 1



GetName: 42801 BULGARIASAT-1

Hit Count: updated at: Fri, 20 Jul 2018 20:28:55 GMT